Weather History for Tyler, TX

Change the Weather History Date:

Monday, December 2, 2013

  Actual Average Record
Temperature  
Mean Temperature 62 °F 50 °F  
Max Temperature 69 °F 60 °F 81 °F (1982)
Min Temperature 54 °F 41 °F 20 °F (1910)
Degree Days  
Heating Degree Days 3 15  
Month to date heating degree days 7 30  
Since 1 July heating degree days 397 404  
Cooling Degree Days 0 0  
Month to date cooling degree days 0 0  
Year to date cooling degree days 2767 2411  
Growing Degree Days 12 (Base 50)    
Moisture  
Dew Point 51 °F    
Average Humidity 78    
Maximum Humidity 100    
Minimum Humidity 55    
Precipitation  
Precipitation 0.00 in 0.14 in 2.78 in (1953)
Month to date precipitation 0.00 0.27  
Year to date precipitation 39.01 41.82  
Snow  
Snow 0.00 in - - ()
Month to date snowfall 0.0  
Since 1 July snowfall T  
Snow Depth 0.00 in    
Sea Level Pressure  
Sea Level Pressure 29.80 in    
Wind  
Wind Speed 4 mph (SSW)    
Max Wind Speed 9 mph    
Max Gust Speed -    
Visibility 5 miles    
Events Fog    
T = Trace of Precipitation, MM = Missing Value Source: NWS Daily Summary

Daily Weather History Graph

Daily Weather History Graph

Search for Another Location

Airport:

Trip Planner

Search our weather history database for the weather conditions in past years. The results will help you decide how hot, cold, wet, or windy it might be!

Date:

Astronomy

Dec. 02, 2013 Rise Set
Actual Time 7:06 AM CST 5:16 PM CST
Civil Twilight 6:39 AM CST 5:42 PM CST
Nautical Twilight 6:08 AM CST 6:13 PM CST
Astronomical Twilight 5:39 AM CST 6:42 PM CST
Moon 6:34 AM CST (12/2) 5:18 PM CST (12/2)
Length of Visible Light 11h 03m
Length of Day
10h 10m
Waning Crescent, 0% of the Moon is Illuminated
Dec 2
Waning Crescent
Dec 2
New
Dec 9
First Quarter
Dec 17
Full
Dec 25
Last Quarter

Hourly Weather History & Observations

Time (CST) Temp. Dew Point Humidity Pressure Visibility Wind Dir Wind Speed Gust Speed Precip Events Conditions
12:53 AM - - N/A% 29.89 in 10.0 mi South 8.1 mph - N/A   Clear
1:53 AM - - N/A% 29.89 in 10.0 mi SW 4.6 mph - N/A   Overcast
2:37 AM - - N/A% 29.87 in 1.8 mi South 3.5 mph - N/A   Partly Cloudy
2:45 AM - - N/A% 29.87 in 0.2 mi South 3.5 mph - N/A Fog Fog
2:53 AM - - N/A% 29.87 in 0.2 mi South 4.6 mph - N/A Fog Fog
3:16 AM - - N/A% 29.86 in 0.2 mi South 3.5 mph - N/A Fog Fog
3:34 AM - - N/A% 29.86 in 0.2 mi South 3.5 mph - 0.00 in   Unknown
3:53 AM - - N/A% 29.85 in 0.2 mi South 5.8 mph - 0.00 in Fog Fog
4:53 AM - - N/A% 29.83 in 0.2 mi SSW 3.5 mph - N/A Fog Fog
5:21 AM - - N/A% 29.83 in 0.5 mi SSW 4.6 mph - N/A Fog Fog
5:50 AM - - N/A% 29.83 in 0.2 mi SW 4.6 mph - N/A Fog Fog
5:53 AM - - N/A% 29.83 in 0.2 mi WSW 5.8 mph - N/A Fog Fog
6:06 AM - - N/A% 29.83 in 0.2 mi WSW 5.8 mph - 0.00 in   Unknown
6:53 AM - - N/A% 29.83 in 0.2 mi WSW 5.8 mph - 0.00 in Fog Fog
7:53 AM - - N/A% 29.84 in 0.2 mi Calm Calm - N/A Fog Fog
8:21 AM - - N/A% 29.84 in 0.2 mi Calm Calm - N/A Fog Fog
8:29 AM - - N/A% 29.84 in 0.5 mi NW 3.5 mph - N/A Fog Fog
8:42 AM - - N/A% 29.85 in 2.0 mi Calm Calm - N/A   Overcast
8:50 AM - - N/A% 29.85 in 4.0 mi Calm Calm - N/A   Haze
8:53 AM - - N/A% 29.85 in 4.0 mi NW 3.5 mph - N/A   Haze
9:53 AM 55.9 °F 55.9 °F 100% 29.83 in 7.0 mi Variable 3.5 mph - 0.01 in   Overcast
10:53 AM 57.0 °F 52.0 °F 83% 29.83 in 10.0 mi Calm Calm - N/A   Overcast
11:12 AM 57.2 °F 51.8 °F 82% 29.83 in 10.0 mi SSW 3.5 mph - N/A   Scattered Clouds
11:53 AM 60.1 °F 51.1 °F 72% 29.81 in 10.0 mi SSW 5.8 mph - N/A   Clear
12:53 PM 63.0 °F 52.0 °F 67% 29.76 in 10.0 mi SSW 6.9 mph - N/A   Clear
1:53 PM 66.9 °F 51.1 °F 57% 29.72 in 10.0 mi SW 9.2 mph - N/A   Clear
2:53 PM 68.0 °F 51.1 °F 55% 29.71 in 10.0 mi SW 5.8 mph - N/A   Clear
3:53 PM 69.1 °F 53.1 °F 57% 29.70 in 10.0 mi SSW 3.5 mph - N/A   Clear
4:53 PM 66.0 °F 52.0 °F 60% 29.71 in 10.0 mi SW 3.5 mph - N/A   Clear
5:53 PM 60.1 °F 52.0 °F 75% 29.71 in 10.0 mi Calm Calm - N/A   Clear
6:53 PM 57.9 °F 51.1 °F 78% 29.73 in 10.0 mi Calm Calm - N/A   Clear
7:53 PM 55.9 °F 50.0 °F 80% 29.73 in 10.0 mi Calm Calm - N/A   Clear
8:53 PM 54.0 °F 48.9 °F 83% 29.73 in 10.0 mi ENE 3.5 mph - N/A   Clear
9:53 PM 54.0 °F 48.9 °F 83% 29.71 in 8.0 mi East 3.5 mph - N/A   Clear
10:53 PM 54.0 °F 50.0 °F 86% 29.69 in 7.0 mi Calm Calm - N/A   Clear
11:53 PM 52.0 °F 48.0 °F 86% 29.69 in 4.0 mi Calm Calm - N/A   Clear